DW4238 Weather Reports


Display with metric or nautical units.
time (UTC)temp
F
wind
direction
speed
MPH
gust
MPH
rain 1hr
in
rain 24hr
in
rain mn
in
humidity
%
barometer
mb
20260905085539 78 155 0.0 0.0 0.00 0.04 0.00 92 1012.2
20260905084608 78 155 0.0 0.0 0.00 0.04 0.00 91 1012.0
20260905084113 78 155 0.0 3.0 0.00 0.04 0.00 91 1012.1
20260905083626 78 155 1.0 5.0 0.00 0.04 0.00 91 1012.0
20260905083049 78 155 2.0 5.0 0.00 0.04 0.00 91 1012.1
20260905082601 78 156 2.0 5.0 0.00 0.04 0.00 91 1012.1
20260905081038 79 157 4.0 6.0 0.00 0.04 0.00 90 1012.0
20260905080100 79 159 1.0 5.0 0.00 0.04 0.00 90 1012.0
20260905075549 79 161 3.0 5.0 0.00 0.04 0.00 90 1012.1
20260905074615 80 165 4.0 8.0 0.00 0.04 0.00 90 1012.1
20260905074106 80 166 3.0 8.0 0.00 0.04 0.00 90 1012.1
20260905073104 80 175 3.0 8.0 0.00 0.04 0.00 90 1012.1
20260905072615 80 186 3.0 8.0 0.00 0.04 0.00 89 1012.1
20260905071637 80 178 5.0 9.0 0.00 0.04 0.00 89 1012.2
20260905071128 80 188 5.0 9.0 0.00 0.04 0.00 89 1012.3
20260905070632 80 186 5.0 8.0 0.00 0.04 0.00 89 1012.2
20260905070059 80 183 4.0 7.0 0.00 0.04 0.00 89 1012.3
20260905065548 80 178 4.0 6.0 0.00 0.04 0.00 89 1012.5
20260905065058 80 184 3.0 6.0 0.00 0.04 0.00 89 1012.5
20260905064550 80 172 4.0 6.0 0.00 0.04 0.00 89 1012.5
20260905064040 80 175 4.0 6.0 0.00 0.04 0.00 89 1012.6
20260905063534 80 177 3.0 5.0 0.00 0.04 0.00 88 1012.6
20260905063047 80 184 4.0 7.0 0.00 0.04 0.00 88 1012.7
20260905062538 80 174 4.0 7.0 0.00 0.04 0.00 88 1012.7
20260905062048 80 170 4.0 8.0 0.00 0.04 0.00 88 1012.6
20260905061542 80 171 5.0 8.0 0.00 0.04 0.00 88 1012.6
20260905061119 80 163 5.0 7.0 0.00 0.04 0.00 88 1012.6
20260905060540 80 163 3.0 8.0 0.00 0.04 0.00 88 1012.6
20260905060040 80 157 4.0 8.0 0.00 0.04 0.00 87 1012.6
20260905055551 80 167 3.0 6.0 0.00 0.04 0.00 87 1012.6
20260905055034 81 173 4.0 6.0 0.00 0.04 0.00 87 1012.7
20260905054534 81 175 5.0 7.0 0.00 0.04 0.00 87 1012.6
20260905054045 81 173 5.0 8.0 0.00 0.04 0.00 86 1012.7
20260905053555 81 180 6.0 10.0 0.00 0.04 0.00 86 1012.6
20260905053048 81 188 6.0 10.0 0.00 0.04 0.00 86 1012.6
20260905052538 81 163 6.0 9.0 0.00 0.04 0.00 86 1012.6
20260905052049 81 174 6.0 7.0 0.00 0.04 0.00 86 1012.4
20260905051542 81 175 6.0 7.0 0.00 0.04 0.00 85 1012.5
20260905051052 82 165 6.0 10.0 0.00 0.04 0.00 85 1012.6
20260905050542 82 171 7.0 11.0 0.00 0.04 0.00 85 1012.7
20260905050122 82 169 7.0 9.0 0.00 0.04 0.00 85 1012.6
20260905045626 82 161 7.0 9.0 0.00 0.04 0.04 85 1012.6
20260905044627 82 151 6.0 8.0 0.00 0.04 0.04 85 1012.7
20260905044043 81 182 6.0 7.0 0.00 0.04 0.04 85 1012.8
20260905043105 81 184 3.0 7.0 0.00 0.04 0.04 86 1012.8
20260905042617 81 160 4.0 8.0 0.00 0.04 0.04 86 1012.8
20260905042121 81 153 5.0 8.0 0.00 0.04 0.04 86 1012.8
20260905041548 81 146 5.0 8.0 0.00 0.04 0.04 85 1012.8
20260905041100 81 148 5.0 8.0 0.00 0.04 0.04 85 1012.8
20260905040105 81 146 4.0 8.0 0.00 0.04 0.04 85 1012.7
20260905035610 81 153 5.0 8.0 0.00 0.04 0.04 85 1012.8
20260905035121 82 151 5.0 8.0 0.00 0.04 0.04 84 1012.9
20260905034542 82 148 5.0 8.0 0.00 0.04 0.04 84 1012.9
20260905034053 82 144 4.0 7.0 0.00 0.04 0.04 84 1012.9
20260905033603 82 142 4.0 7.0 0.00 0.04 0.04 83 1012.9
20260905033148 82 138 3.0 7.0 0.00 0.04 0.04 83 1012.9
20260905032537 82 142 2.0 5.0 0.00 0.04 0.04 82 1012.9
20260905032121 82 144 2.0 5.0 0.00 0.04 0.04 82 1012.8
20260905031549 82 150 3.0 6.0 0.00 0.04 0.04 82 1012.8
20260905031101 83 150 3.0 5.0 0.00 0.04 0.04 82 1012.8
20260905030605 83 148 4.0 8.0 0.00 0.04 0.04 81 1012.7
20260905030038 83 143 5.0 8.0 0.00 0.04 0.04 81 1012.7
20260905025550 83 138 4.0 7.0 0.00 0.04 0.04 80 1012.7
20260905024612 83 128 2.0 6.0 0.00 0.04 0.04 79 1012.6
20260905024117 83 128 0.0 5.0 0.00 0.04 0.04 79 1012.5
20260905023629 84 129 2.0 5.0 0.00 0.04 0.04 79 1012.4
20260905023055 84 130 0.0 1.0 0.00 0.04 0.04 79 1012.4
20260905022600 84 130 0.0 0.0 0.00 0.04 0.04 79 1012.3
20260905022111 84 130 0.0 2.0 0.00 0.04 0.04 79 1012.3
20260905021542 84 130 0.0 1.0 0.00 0.04 0.04 79 1012.2
20260905021046 84 130 0.0 1.0 0.00 0.04 0.04 80 1012.3
20260905020108 84 130 0.0 2.0 0.00 0.04 0.04 79 1012.1
20260905015619 84 130 0.0 3.0 0.00 0.04 0.04 79 1012.1
20260905015131 84 130 1.0 3.0 0.00 0.04 0.04 79 1012.1
20260905014552 84 129 0.0 1.0 0.00 0.04 0.04 79 1011.8
20260905014042 85 132 0.0 1.0 0.00 0.04 0.04 79 1011.9
20260905013109 85 132 0.0 1.0 0.00 0.04 0.04 78 1011.8
20260905012620 85 132 0.0 5.0 0.00 0.04 0.04 78 1011.9
20260905011619 85 136 0.0 1.0 0.00 0.04 0.04 77 1011.8
20260905011110 86 138 0.0 4.0 0.00 0.04 0.04 77 1011.7
20260905010131 86 140 2.0 7.0 0.00 0.04 0.04 76 1011.7
20260905005636 86 117 1.0 6.0 0.00 0.04 0.04 76 1011.4
20260905005126 87 113 2.0 6.0 0.00 0.04 0.04 75 1011.5
20260905004552 87 113 1.0 4.0 0.00 0.04 0.04 75 1011.5
20260905004057 87 107 2.0 6.0 0.00 0.04 0.04 74 1011.4
20260905003100 88 120 3.0 9.0 0.00 0.04 0.04 73 1011.3
20260905002551 88 125 5.0 9.0 0.00 0.04 0.04 73 1011.3
20260905001614 88 124 3.0 9.0 0.00 0.04 0.04 72 1011.2
20260905001105 89 87 3.0 8.0 0.00 0.04 0.04 72 1011.3
20260905000127 89 124 3.0 9.0 0.00 0.04 0.04 71 1011.3
20260904235538 89 105 3.0 9.0 0.00 0.04 0.04 70 1011.2
20260904234605 90 126 4.0 10.0 0.00 0.04 0.04 70 1011.3
20260904234116 90 83 5.0 10.0 0.00 0.04 0.04 69 1011.2
20260904233611 90 108 5.0 12.0 0.00 0.04 0.04 69 1011.1
20260904233044 90 82 8.0 12.0 0.00 0.04 0.04 68 1011.2
20260904232549 90 82 6.0 11.0 0.00 0.04 0.04 68 1011.3
20260904231619 90 78 7.0 14.0 0.00 0.04 0.04 68 1011.3
20260904231042 91 88 8.0 13.0 0.00 0.04 0.04 67 1011.2
20260904225618 91 137 8.0 14.0 0.00 0.04 0.04 63 1011.2
20260904224615 90 148 7.0 14.0 0.00 0.04 0.04 64 1011.2
20260904224125 90 144 7.0 14.0 0.00 0.04 0.04 65 1011.3
20260904223123 91 143 5.0 10.0 0.00 0.04 0.04 65 1011.2
20260904222539 90 121 6.0 10.0 0.00 0.04 0.04 68 1011.4
20260904222153 90 122 5.0 10.0 0.00 0.04 0.04 68 1011.4
20260904221559 90 123 3.0 10.0 0.00 0.04 0.04 69 1011.4
20260904221042 90 142 7.0 10.0 0.00 0.04 0.04 68 1011.3
20260904220101 90 131 4.0 11.0 0.00 0.04 0.04 69 1011.5
20260904215613 90 165 8.0 11.0 0.00 0.04 0.04 67 1011.6
20260904215124 90 136 8.0 11.0 0.00 0.04 0.04 67 1011.7
20260904214548 90 136 5.0 12.0 0.00 0.04 0.04 69 1011.8
20260904214100 90 104 7.0 12.0 0.00 0.04 0.04 67 1011.9
20260904213122 89 157 6.0 10.0 0.00 0.04 0.04 66 1012.0
20260904212613 89 132 6.0 11.0 0.00 0.04 0.04 68 1012.1
20260904211634 89 126 4.0 10.0 0.00 0.04 0.04 69 1012.2
20260904211125 88 78 6.0 9.0 0.00 0.04 0.04 68 1012.2
20260904210606 88 131 5.0 11.0 0.00 0.04 0.04 70 1012.2
20260904210038 88 119 6.0 11.0 0.00 0.04 0.04 73 1012.2
20260904205547 87 90 3.0 11.0 0.00 0.04 0.04 75 1012.3
20260904204547 87 105 5.0 9.0 0.00 0.04 0.04 76 1012.4
20260904204152 87 130 6.0 13.0 0.00 0.04 0.04 75 1012.4
20260904203542 87 107 7.0 13.0 0.00 0.04 0.04 76 1012.5
20260904203155 86 128 7.0 14.0 0.00 0.04 0.04 78 1012.7
20260904202639 86 129 7.0 15.0 0.00 0.04 0.04 79 1012.7
20260904202130 86 140 6.0 14.0 0.00 0.04 0.04 81 1012.7
20260904201537 86 102 8.0 13.0 0.00 0.04 0.04 82 1012.7
20260904201041 85 135 7.0 11.0 0.00 0.04 0.04 82 1012.8
20260904200101 84 118 4.0 9.0 0.00 0.04 0.04 86 1012.8
20260904195613 84 120 5.0 11.0 0.00 0.04 0.04 86 1012.8
20260904194639 83 111 5.0 8.0 0.00 0.04 0.04 87 1012.9
20260904194128 83 142 4.0 8.0 0.00 0.04 0.04 87 1012.9
20260904193607 83 135 5.0 8.0 0.00 0.04 0.04 86 1012.9
20260904193038 83 132 5.0 8.0 0.00 0.04 0.04 86 1012.9
20260904192549 83 139 3.0 8.0 0.00 0.04 0.04 86 1012.9
20260904191611 83 124 4.0 9.0 0.00 0.04 0.04 85 1013.0
20260904191055 83 134 3.0 8.0 0.00 0.04 0.04 85 1013.1
20260904190602 83 159 6.0 11.0 0.00 0.04 0.04 84 1013.2
20260904190034 83 138 6.0 10.0 0.00 0.04 0.04 83 1013.3
20260904185538 84 150 7.0 10.0 0.00 0.04 0.04 82 1013.4
20260904184608 84 145 4.0 10.0 0.00 0.04 0.04 81 1013.5
20260904184113 85 117 6.0 10.0 0.00 0.04 0.04 80 1013.7
20260904183625 85 130 6.0 10.0 0.00 0.04 0.04 80 1013.7
20260904183046 85 126 5.0 10.0 0.00 0.04 0.04 80 1013.9
20260904182556 86 123 4.0 9.0 0.00 0.04 0.04 80 1014.0
20260904181557 86 109 3.0 11.0 0.00 0.04 0.04 80 1013.9
20260904181050 86 138 5.0 11.0 0.00 0.04 0.04 79 1013.9
20260904180109 87 121 4.0 11.0 0.00 0.04 0.04 79 1014.0
20260904175621 87 91 4.0 9.0 0.00 0.04 0.04 80 1014.0
20260904175127 87 103 3.0 10.0 0.00 0.04 0.04 79 1013.9
20260904174554 87 82 5.0 9.0 0.00 0.04 0.04 80 1013.9
20260904174100 87 76 6.0 11.0 0.00 0.04 0.04 79 1013.8
20260904173550 88 97 6.0 11.0 0.00 0.04 0.04 78 1013.8
20260904173035 88 128 4.0 10.0 0.00 0.04 0.04 76 1013.9
20260904172547 89 78 4.0 9.0 0.00 0.04 0.04 75 1014.0
20260904171613 89 189 2.0 12.0 0.00 0.04 0.04 74 1014.1
20260904171126 89 139 5.0 12.0 0.00 0.04 0.04 75 1014.2
20260904170631 88 173 3.0 8.0 0.00 0.04 0.04 78 1014.2
20260904170059 88 245 3.0 5.0 0.00 0.04 0.04 78 1014.3
20260904165610 87 245 1.0 4.0 0.00 0.04 0.04 78 1014.4
20260904165113 87 246 0.0 9.0 0.00 0.04 0.04 81 1014.4
20260904164540 87 247 0.0 9.0 0.00 0.04 0.04 80 1014.4
20260904164044 87 248 3.0 9.0 0.00 0.04 0.04 79 1014.3
20260904163117 87 213 1.0 8.0 0.00 0.04 0.04 81 1014.3
20260904162601 87 122 2.0 7.0 0.00 0.04 0.04 83 1014.2
20260904161630 86 194 3.0 6.0 0.00 0.04 0.04 84 1014.2
20260904161035 85 207 2.0 5.0 0.00 0.04 0.04 85 1014.1
20260904160054 85 206 4.0 7.0 0.00 0.04 0.04 85 1014.1
20260904155542 85 207 5.0 7.0 0.00 0.04 0.04 86 1014.2
20260904154608 84 140 2.0 6.0 0.00 0.04 0.04 90 1014.2
20260904154059 84 140 2.0 4.0 0.00 0.04 0.04 91 1014.2
20260904153059 83 99 3.0 6.0 0.00 0.04 0.04 92 1014.2
20260904152604 83 82 4.0 5.0 0.00 0.04 0.04 92 1014.2
20260904151623 82 110 0.0 1.0 0.00 0.04 0.04 93 1014.1
20260904151114 82 89 0.0 3.0 0.00 0.04 0.04 93 1014.2
20260904150625 82 94 0.0 3.0 0.00 0.04 0.04 93 1014.1
20260904150046 82 119 0.0 0.0 0.00 0.04 0.04 93 1014.1
20260904145601 81 120 0.0 2.0 0.00 0.04 0.04 93 1014.1
20260904144603 81 111 0.0 3.0 0.00 0.04 0.04 94 1014.0
20260904144107 81 109 1.0 4.0 0.00 0.04 0.04 94 1014.0
20260904143619 81 140 2.0 4.0 0.00 0.04 0.04 94 1014.0
20260904143047 81 116 0.0 3.0 0.00 0.04 0.04 94 1013.9
20260904142552 81 120 0.0 3.0 0.00 0.04 0.04 94 1013.9
20260904141621 81 132 0.0 4.0 0.00 0.04 0.04 94 1013.8
20260904141125 81 133 2.0 5.0 0.00 0.04 0.04 94 1013.8
20260904140613 81 132 0.0 0.0 0.00 0.04 0.04 94 1013.7
20260904140038 81 134 0.0 0.0 0.00 0.04 0.04 94 1013.7
20260904135550 81 134 0.0 3.0 0.00 0.04 0.04 94 1013.6
20260904134612 80 134 3.0 4.0 0.00 0.04 0.04 95 1013.4
20260904134103 80 117 0.0 0.0 0.00 0.04 0.04 95 1013.4
20260904133125 80 115 0.0 0.0 0.00 0.04 0.04 94 1013.2
20260904132541 80 113 0.0 0.0 0.00 0.04 0.04 94 1013.3
20260904132143 80 111 0.0 1.0 0.00 0.04 0.04 94 1013.3
20260904131554 80 111 0.0 3.0 0.00 0.04 0.04 94 1013.3
20260904131106 80 98 0.0 4.0 0.00 0.04 0.04 94 1013.3
20260904130128 80 105 0.0 0.0 0.00 0.04 0.04 94 1013.2
20260904125634 80 104 0.0 0.0 0.00 0.04 0.04 94 1013.1
20260904124638 80 103 0.0 0.0 0.00 0.04 0.04 94 1013.0
20260904124100 80 101 0.0 0.0 0.00 0.04 0.04 94 1013.0
20260904123128 80 98 0.0 0.0 0.00 0.04 0.04 94 1012.9
20260904122607 80 94 0.0 0.0 0.00 0.04 0.04 94 1012.8
20260904122119 80 93 0.0 0.0 0.00 0.04 0.04 94 1012.8
20260904121046 80 90 2.0 4.0 0.00 0.04 0.04 94 1012.6
20260904120108 80 90 0.0 1.0 0.00 0.04 0.04 94 1012.5
20260904115621 80 140 0.0 0.0 0.00 0.04 0.04 94 1012.5
20260904114620 80 140 0.0 0.0 0.00 0.04 0.04 94 1012.3
20260904114034 80 140 0.0 0.0 0.00 0.04 0.04 94 1012.3
20260904113535 80 141 0.0 0.0 0.00 0.04 0.04 94 1012.3
20260904112641 80 140 0.0 0.0 0.00 0.04 0.04 94 1012.2
20260904111601 80 138 0.0 0.0 0.00 0.04 0.04 93 1012.3
20260904111051 80 137 0.0 0.0 0.00 0.04 0.04 93 1012.3
20260904110051 80 137 0.0 0.0 0.00 0.04 0.04 93 1012.3
20260904105603 80 137 0.0 0.0 0.00 0.04 0.04 93 1012.3
20260904104626 80 137 0.0 0.0 0.01 0.04 0.04 93 1012.2
20260904104138 80 137 0.0 0.0 0.01 0.04 0.04 93 1012.2
20260904103622 80 138 0.0 0.0 0.02 0.04 0.04 93 1012.1
20260904103054 80 138 0.0 0.0 0.02 0.04 0.04 93 1012.1
20260904102536 80 138 0.0 0.0 0.03 0.04 0.04 93 1012.1
20260904102150 80 137 0.0 0.0 0.03 0.04 0.04 93 1012.1
20260904101555 80 137 0.0 0.0 0.03 0.04 0.04 93 1012.0
20260904101100 80 137 0.0 0.0 0.03 0.04 0.04 93 1012.0
20260904100607 80 136 0.0 3.0 0.03 0.04 0.04 93 1012.0
20260904100037 80 136 0.0 3.0 0.03 0.04 0.04 93 1012.0
20260904095542 80 155 0.0 6.0 0.04 0.04 0.04 93 1012.1
20260904095154 80 155 1.0 7.0 0.04 0.04 0.04 93 1012.1
20260904094553 80 153 3.0 7.0 0.03 0.03 0.03 93 1011.9
20260904094105 80 186 3.0 8.0 0.03 0.03 0.03 93 1011.9
20260904093621 80 193 4.0 10.0 0.03 0.03 0.03 93 1011.8
20260904093042 80 194 5.0 10.0 0.03 0.03 0.03 93 1011.8
20260904092555 80 208 6.0 10.0 0.02 0.02 0.02 93 1011.7
20260904091617 80 185 7.0 9.0 0.01 0.01 0.01 93 1011.8
20260904091129 80 181 6.0 8.0 0.01 0.01 0.01 93 1011.9
20260904090310 80 175 7.0 9.0 0.01 0.01 0.01 93 1011.9